This demonstration page uses our WeatherBlox Daily Observations layout. Learn more.

39.29038, -76.61219

Hourly Observations for July 5, 2020

Temp ( °F °C ) Dew Point ( °F °C ) Humidity (%) Winds ( mph kmh ) Pressure ( in mb ) Visibility ( mi km ) Precip ( " mm )
12:54 am 00:54 Hazy 76 24.4 69 20.6 79 79 SSE 3 6 29.94 1014 4 6.43736 0 0
1:54 am 01:54 Hazy 76 24.4 69 20.6 79 79 SSW 3 6 29.94 1014 3 4.82802 0 0
2:54 am 02:54 Partly Cloudy with Mist and Fog 75 23.9 71 21.7 88 88 SSW 5 7 29.94 1014 4 6.43736 0 0
3:54 am 03:54 Mostly Clear with Mist and Fog 75 23.9 72 22.2 90 90 SSW 5 7 29.94 1014 4 6.43736 0 0
4:27 am 04:27 Partly Cloudy with Mist and Fog 75 23.9 72 22.2 90 90 SSW 3 6 29.93 1014 5 8.0467 0 0
4:54 am 04:54 Partly Cloudy with Mist and Fog 75 23.9 72 22.2 90 90 SSW 5 7 29.94 1014 5 8.0467 0 0
5:54 am 05:54 Mostly Cloudy with Mist and Fog 75 23.9 72 22.2 90 90 SSW 6 9 29.95 1014 6 9.65604 0 0
6:19 am 06:19 Partly Cloudy with Mist and Fog 75 23.9 72 22.2 90 90 WSW 3 6 29.95 1014 6 9.65604 0 0
6:42 am 06:42 Mostly Cloudy with Mist and Fog 75 23.9 72 22.2 90 90 SW 3 6 29.96 1015 6 9.65604 0 0
6:54 am 06:54 Mostly Cloudy with Mist and Fog 76 24.4 72 22.2 88 88 SW 3 6 29.97 1015 6 9.65604 0 0
7:21 am 07:21 Mostly Cloudy with Haze 77 25 72 22.2 85 85 SSW 3 6 29.96 1015 6 9.65604 0 0
7:54 am 07:54 Mostly Cloudy with Haze 79 26.1 72 22.2 79 79 SSW 5 7 29.97 1015 6 9.65604 0 0
8:54 am 08:54 Partly Cloudy 82 27.8 73 22.8 74 74 SSW 6 9 29.98 1015 8 12.87472 0 0
9:54 am 09:54 Partly Cloudy 85 29.4 73 22.8 68 68 SSW 6 9 29.98 1015 10 16.0934 0 0
10:54 am 10:54 Partly Cloudy 88 31.1 72 22.2 59 59 VRB 7 11 29.98 1015 10 16.0934 0 0
11:54 am 11:54 Partly Cloudy 90 32.2 71 21.7 54 54 SW 8 13 29.98 1015 10 16.0934 0 0
12:54 pm 12:54 Mostly Cloudy 90 32.2 72 22.2 56 56 VRB 7 11 29.97 1015 10 16.0934 0 0
1:54 pm 13:54 Mostly Cloudy 90 32.2 71 21.7 54 54 VRB 6 9 29.96 1014 10 16.0934 0 0
2:54 pm 14:54 Mostly Cloudy with Light Rain 90 32.2 73 22.8 58 58 S 5 7 29.94 1014 10 16.0934 0.001 0.001
3:54 pm 15:54 Mostly Cloudy 94 34.4 70 21.1 46 46 SSW 9 15 29.91 1013 10 16.0934 0.001 0.001
4:54 pm 16:54 Mostly Cloudy with Thunderstorms 86 30 64 17.8 48 48 ENE 20 31 29.92 1013 10 16.0934 0 0
5:21 pm 17:21 Mostly Cloudy 86 30 66 18.9 51 51 ESE 12 19 29.92 1013 10 16.0934 0.001 0.001
5:54 pm 17:54 Mostly Cloudy 87 30.6 67 19.4 51 51 SSE 10 17 29.92 1013 10 16.0934 0.001 0.001
6:54 pm 18:54 Mostly Cloudy 88 31.1 67 19.4 50 50 SSW 6 9 29.93 1014 10 16.0934 0 0
7:54 pm 19:54 Mostly Cloudy 86 30 71 21.7 61 61 SW 8 13 29.93 1014 10 16.0934 0 0
8:54 pm 20:54 Mostly Cloudy 84 28.9 71 21.7 65 65 SSW 5 7 29.95 1014 10 16.0934 0 0
9:54 pm 21:54 Partly Cloudy 82 27.8 72 22.2 72 72 WSW 5 7 29.97 1015 10 16.0934 0 0
10:54 pm 22:54 Mostly Cloudy 81 27.2 72 22.2 74 74 SW 6 9 29.97 1015 10 16.0934 0 0
11:54 pm 23:54 Partly Cloudy 80 26.7 72 22.2 76 76 SW 5 7 29.98 1015 10 16.0934 0 0

Powered by AerisWeather